Location: Kailua
(21.4020°N, 157.7390°W)
Time: 22:43:14
(UTC-10:00)

Daily predictions for brighter satellites

Satellite Brightness Start Highest point End
(mag) Time Altitude Azimuth Time Altitude Azimuth Time Altitude Azimuth
Resurs 1-3 3.9 19:24:38 10° SSE 19:28:52 50° ENE 19:33:06 10° N
Atlas Centaur 2 2.8 19:22:14 10° WSW 19:28:55 75° SSE 19:37:03 10° ENE
Okean 1 3.5 19:31:30 10° S 19:35:33 79° W 19:39:37 10° N
Cosmos 1400 Rocket 3.2 19:35:02 10° NNW 19:38:52 65° W 19:42:46 10° S
OTV 4 3.1 19:38:54 10° N 19:40:09 12° NNE 19:41:25 10° NE
Lacrosse 5 rocket 3.9 19:37:24 10° WSW 19:40:27 24° NW 19:43:36 10° N
Cosmos 2278 Rocket 3.5 19:36:15 10° NNE 19:40:40 23° ENE 19:44:52 11° ESE
COSMOS 2455 4.5 19:39:37 10° SE 19:41:46 12° ESE 19:43:53 10° E
Cosmos 2219 Rocket 4.2 19:37:28 10° SW 19:42:31 33° WNW 19:47:34 10° N
Cosmos 1500 4.5 19:44:02 10° NNE 19:47:10 23° E 19:49:46 13° SE
Cosmos 1725 Rocket 4.0 19:41:58 10° N 19:48:12 68° E 19:54:21 10° SSE
SL-16 R/B 2.2 19:43:53 10° S 19:49:27 63° ESE 19:55:02 10° NNE
Intelsat 5-2 Rocket 1.7 19:52:05 10° W 19:54:48 86° N 19:56:24 18° E
Cosmos 1743 4.3 19:55:13 10° NE 19:57:46 17° E 19:58:39 16° E
Meteor 1-13 Rocket 4.4 19:57:47 10° S 20:03:40 82° W 20:09:27 10° N
ALOS 2.7 20:01:45 15° SE 20:05:22 43° ENE 20:09:47 10° N
Cosmos 1603 4.1 20:13:14 10° S 20:18:22 37° ESE 20:23:28 10° NE
Cosmos 2058 Rocket 4.2 20:15:12 10° NNE 20:18:44 24° E 20:19:07 23° E
H-2A R/B 2.8 20:19:26 26° SSE 20:21:30 64° ENE 20:25:24 10° N
Meteor 1-19 Rocket 4.4 20:20:52 10° SSW 20:26:32 74° W 20:32:07 10° N
Meteor 2-4 Rocket 3.7 20:21:28 10° S 20:27:12 77° E 20:33:04 10° N
deb Chang Zheng 4 3.5 20:25:37 10° NNE 20:30:00 86° ESE 20:34:20 10° SSW
Cosmos 2233 Rocket 4.0 20:24:00 10° N 20:30:14 87° W 20:36:04 12° S
Cosmos 2098 Rocket 3.2 20:26:29 10° N 20:30:16 69° W 20:34:32 13° S
Milstar 3 Cent rocket 2.8 20:26:13 10° WNW 20:34:13 58° N 20:37:09 25° E
ERS-1 Rocket 3.1 20:36:56 38° SE 20:38:32 54° ENE 20:43:24 10° N
Cosmos 1464 Rocket 4.3 20:33:19 10° NNE 20:39:08 44° E 20:40:55 35° ESE
H-2A R/B 2.4 20:39:45 41° E 20:39:56 42° ENE 20:43:56 10° N
Envisat 4.1 20:40:15 26° ENE 20:40:20 26° ENE 20:44:30 10° NNE
Hubble Space Telescope 1.0 20:37:39 10° WNW 20:41:43 54° SSW 20:42:14 50° S
Cosmos 1606 Rocket 3.4 20:38:42 10° N 20:43:07 89° WSW 20:44:38 41° S
IUS-1 SRM-2 2.6 20:40:55 10° WNW 20:42:48 35° W 20:42:48 35° W
Cosmos 2297 4.1 20:38:20 10° N 20:43:45 44° ENE 20:44:57 39° ESE
FENGYUN 3A 3.9 20:41:26 20° S 20:45:11 68° WSW 20:50:32 10° NNW
Cosmos 1844 Rocket 4.2 20:42:02 10° NW 20:46:56 31° WSW 20:51:48 10° SSW
Cosmos 1626 Rocket 3.7 20:48:58 53° E 20:48:58 53° E 20:53:04 10° NNE
Delta 168 3.3 20:45:37 10° W 20:49:09 56° N 20:50:43 35° NE
Tiangong 1 3.6 20:48:27 10° W 20:50:05 14° SW 20:50:05 14° SW
ATLAS 3B R/B 3.5 20:50:50 35° ESE 20:50:50 35° ESE 20:57:19 10° NE
USA 186 3.4 20:49:53 25° SW 20:50:33 28° W 20:53:08 10° NW
Cosmos 1110 Rocket 4.0 20:47:25 10° N 20:52:38 64° ENE 20:53:30 55° ESE
GPS 2-15 Rocket1 3.0 20:50:11 10° W 20:55:02 74° S 20:55:28 68° SE
Cosmos 2034 Rocket 4.2 20:51:10 10° N 20:57:14 47° E 20:57:57 45° ESE
ISS -2.0 20:54:58 10° WSW 20:58:02 39° NW 20:58:43 34° NNW
Aureole 2 Rocket 4.3 20:54:45 10° SW 20:58:38 36° WNW 21:02:16 10° N
SJ-11-01 4.1 20:58:16 68° SSE 20:58:52 85° ENE 21:03:32 10° N
Fermi 4.3 20:58:15 10° W 21:02:14 50° N 21:02:30 49° N
Cosmos 1939 Rocket 3.5 21:06:23 51° NNE 21:06:23 51° NNE 21:09:38 10° N
Mugunghwa Rocket 4.1 20:59:40 10° SW 21:05:33 50° SSE 21:05:33 50° SSE
GEOS 3 Rocket 3.7 21:06:19 56° S 21:07:22 74° WSW 21:12:38 10° NW
Cosmos 2228 3.5 21:08:47 10° N 21:12:15 54° N 21:12:15 54° N
OTV 4 3.4 21:13:45 10° WNW 21:14:35 17° WNW 21:14:35 17° WNW
Skynet4D Del rocket 4.3 21:13:04 10° W 21:17:34 39° SW 21:17:34 39° SW
Atlas Centaur 2 3.5 21:11:36 10° W 21:19:03 56° NNW 21:26:16 15° ENE
Cosmos 1666 4.2 21:17:40 10° N 21:19:56 34° NNW 21:19:56 34° NNW
SPOT 5 3.7 21:24:40 39° N 21:24:40 39° N 21:27:31 10° N
Cosmos 2278 Rocket 3.7 21:19:43 10° NW 21:24:36 30° WSW 21:26:45 23° SW
COSMOS 2455 3.2 21:21:11 10° SSW 21:27:05 61° WNW 21:33:02 10° NNE
Meteor 1-15 Rocket 4.3 21:24:00 10° NNW 21:29:35 72° W 21:29:48 71° WSW
Delta 202 4.3 21:19:56 10° W 21:29:59 73° S 21:30:43 68° SE
ATLAS 3B CENTAUR R/B 4.1 21:28:32 10° WSW 21:33:59 33° SSW 21:34:03 33° SSW
SeaSat 1 3.6 21:49:33 40° NNW 21:49:33 40° NNW 21:52:42 10° NNW
Gbstr 26 Del rocket 4.3 21:40:14 10° NW 21:48:07 84° NE 21:48:26 82° E
ATLAS 3B R/B 4.1 22:37:47 26° WSW 22:41:07 36° WNW 22:48:03 10° N
USA 234 4.4 22:52:35 37° NW 22:52:35 37° NW 22:56:19 10° NW
Atlas Centaur 2 4.0 23:02:03 10° WNW 23:08:57 44° NNW 23:08:57 44° NNW
